Tracking 30298 objects as of 27-Apr-2025
HD Live streaming from Space Station
objects crossing your sky now

STARLINK-31381

Track STARLINK-31381 now!
10-day predictions


NORAD ID: 59469
Int'l Code: 2024-068Q
Perigee: 489.2 km
Apogee: 491.2 km
Inclination: 43.0 °
Period: 94.3 minutes
Semi major axis: 6861 km
RCS: Unknown
Launch date: April 10, 2024
Source: United States (US)
Launch site: AIR FORCE EASTERN TEST RANGE (AFETR)
Your satellite tracking list
Your tracking list is empty




NASA's NSSDC Master Catalog

Two Line Element Set (TLE):
1 59469U 24068Q   25116.70980823  .00000448  00000-0  25804-4 0  9994
2 59469  42.9993  21.2871 0001412 264.5056  95.5634 15.27570636 60086
Source of the keplerian elements: AFSPC